Погода в Бурее

Россия / Амурская область     49°48′46″N   129°48′45″E
темп.,
°C
ветер,
м/с
пор.,
м/с
влажн.,
%
обл.,
%
осадки,
мм/ч
давл.,
гПа
погр.,
м
31 июля, сб
сб3100:00+20ссв3392100 1.8 100141
03:00+20св3395100 3.3 100156
06:00+20юв3998100 3.8 1002295
09:00+19юв61396100 6.9 1002555
12:00+21юв7128681 0.2 1001722
15:00+25юв7127398 0.2 10001118
18:00+23юв71383100 0.8 1000579
21:00+20юв61395100 1.6 1001488
1 августа, вс
вс100:00+19юв51496100 4.7 1002626
03:00+19юв6159680 6.6 1001646
06:00+19юв6159599 1.9 1001569
09:00+22юв81584100 2.2 1002794
12:00+24ююв91479100 0.1 10031034
15:00+23юв8157947 0.3 1003847
18:00+24ююв81576100 0.1 1003875
21:00+21юв51492100 2.6 1004529
2 августа, пн
пн200:00+20ююв41292100 1.9 1005494
03:00+19ююв51297100 7.9 1005485
06:00+18ююв4898100 5.4 1006389
09:00+19ю3695100 5.5 1007475
12:00+18ююв1297100 2.5 1008229
15:00+18ссз2299100 9.3 1007119
18:00+19ссв3699100 6.1 1007195
21:00+19ссз129899 7.9 100738
3 августа, вт
вт300:00+19ссв2297100 0.6 100628
03:00+19ю119839 1.8 100511
06:00+19ю1198100 1.3 100558
09:00+23ююв4788100 1.4 1005522
12:00+26ю61086100 1.5 1003840
15:00+26ю5985100 5.4 1002777
18:00+21з6897100 4.6 1003372
21:00+18з3598100 6.2 1004245
4 августа, ср
ср400:00+16зсз4797100 0.0 1004363
03:00+15з479799 0.1 1005355
06:00+13з359844 0.0 1006176
09:00+18сз2382100 0.0 1006434
12:00+22з127292 0.0 1005848
15:00+23ююв1168100 0.0 1003798
18:00+22св2277100 0.0 1003171
21:00+20вюв1179100 0.1 100212